Location: La Bastide
(43.1661°N, 1.2755°E)
Time: 15:32:00
(UTC+00:00)

BlueWalker 3 - Pass Details

Date: 26 February 2026
Orbit: 451 x 458 km, 53.2° (Epoch: 6 March)

Event Time Altitude Azimuth Distance (km) Brightness Sun altitude
Exits shadow 04:05:49 17° 121° (ESE) 1,231 4.3 -28.0°
Drops below altitude 10° 04:07:50 10° 87° (E) 1,597 5.4 -27.7°
Sets 04:10:29 0° 67° (ENE) 2,473 6.7 -27.2°
